星链-32132 (STARLINK-32132)

导读

STARLINK-32132是美国SpaceX公司星链卫星互联网项目的一员,于2024年8月2日从美国发射入轨。星链项目旨在通过部署近4.2万颗低轨道卫星,为全球提供高速、低延迟的宽带互联网服务,尤其覆盖传统基础设施难以触达的偏远地区、海洋及空域。 作为星链大规模组网的组成部分,该卫星运行在近地轨道,将与数千颗已在轨卫星协同,为全球用户提供稳定通信服务,同时星链也已逐步应用于军事与应急通信领域。

基本信息
目录编号:
60334
目录名称:
STARLINK-32132
国际标识:
2024-136F
轨道中心:
EARTH
卫星名称:
星链-32132 (STARLINK-32132)
卫星全名:
星链-32132 (STARLINK-32132)
卫星状态:
在轨 (已飞行685 天)
发射日期:
2024-08-02 UTC
国别 :
美国 (US)
星等 :
--
轨道信息
数据来源 国际轨道数据
星历时间: 2026-06-18T02:16:26+0800
6小时前
查看轨道信息
半长轴: 6853.37km
偏心率: 0.0001307
轨道倾角: 53.161°
近地点辐角 94.252°
升交点赤经 331.011°
平近点角 265.863°
近地点: 474.337km
远地点: 476.129km
周期: 94.106分钟
每日圈数: 15.301941
详细信息
卫星平台:
Starlink v2.0 mini
运营商:
太空探索技术公司
运营商所在国:
美国
制造商(研发单位):
太空探索技术公司
制造商所在国:
美国
使用方式:
暂无
卫星简介
星链(Starlink)计划是由太空探索技术公司(SpaceX)提出的一个巨型低轨卫星互联网星座项目,计划在2019年至2024年间在太空搭建由约1.2万颗卫星组成的“星链”网络,其中1584颗将部署在地球上空550千米处的近地轨道,并从2020年开始工作。该卫星仍在工作。
2D轨道图
3D轨道图
轨道高度分析图
轨道倾角分析图
轨道综合分析图
查看轨道综合分析图